Location: Pasadena, ca
(34.1243°N, 118.1037°W)
Time: 14:47:24
(UTC-08:00)

Envisat - Pass Details

Date: 11 October 2017
Orbit: 764 x 766 km, 98.2° (Epoch: 14 December)

Event Time Altitude Azimuth Distance (km) Brightness Sun altitude
Exits shadow 20:51:13 29° 347° (NNW) 1,391 4.5 -31.4°
Drops below altitude 10° 20:53:37 10° 348° (NNW) 2,309 5.7 -31.9°
Sets 20:55:55 0° 348° (NNW) 3,239 6.6 -32.3°
